Weather History for KJKJ - November, 2013

Change the Weather History Date:

Sunday, November 3, 2013

  Actual Average (KFAR) Record (KFAR)
Temperature  
Mean Temperature 46 °F 36 °F  
Max Temperature 53 °F 46 °F 70 °F (1903)
Min Temperature 39 °F 27 °F 0 °F (1991)
Degree Days  
Heating Degree Days 19 29  
Month to date heating degree days 84  
Since 1 July heating degree days 960  
Cooling Degree Days 0 0  
Month to date cooling degree days 0  
Year to date cooling degree days 551  
Moisture  
Dew Point 34 °F    
Average Humidity 61    
Maximum Humidity 100    
Minimum Humidity 35    
Precipitation  
Precipitation 0.00 in 0.04 in 0.83 in (1925)
Month to date precipitation 0.11  
Year to date precipitation 20.89  
Snow  
Snow 0.00 in 0.10 in 2.40 in (1951)
Month to date snowfall 0.3  
Since 1 July snowfall 1.0  
Since 1 September snowfall 1.0  
Snow Depth -    
Sea Level Pressure  
Sea Level Pressure 29.76 in    
Wind  
Wind Speed 16 mph (SSE)    
Max Wind Speed 34 mph    
Max Gust Speed 46 mph    
Visibility 10 miles    
Events      
T = Trace of Precipitation, MM = Missing Value Source: NWS Daily Summary

Daily Weather History Graph

Daily Weather History Graph

Search for Another Location

Airport or City:

Trip Planner

Search our weather history database for the weather conditions in past years. The results will help you decide how hot, cold, wet, or windy it might be!

Date:

Astronomy

Nov. 03, 2013 Rise Set
Actual Time 7:12 AM CST 5:07 PM CST
Civil Twilight 6:40 AM CST 5:39 PM CST
Nautical Twilight 6:04 AM CST 6:15 PM CST
Astronomical Twilight 5:29 AM CST 6:50 PM CST
Moon 7:18 AM CST (11/3) 5:21 PM CST (11/3)
Length of Visible Light 10h 58m
Length of Day
9h 55m
New Moon, 0% of the Moon is Illuminated
Nov 3
New Moon
Nov 9
First Quarter
Nov 17
Full
Nov 25
Last Quarter
Dec 2
New

Hourly Weather History & Observations

Time (CST) Temp. Windchill Dew Point Humidity Pressure Visibility Wind Dir Wind Speed Gust Speed Precip Events Conditions
12:14 AM 39.2 °F 33.6 °F 37.4 °F 93% 29.98 in 10.0 mi SSE 8.1 mph - N/A   Clear
12:35 AM 39.2 °F 33.0 °F 37.4 °F 93% 29.97 in 10.0 mi SSE 9.2 mph - N/A   Clear
12:55 AM 39.2 °F 33.0 °F 37.4 °F 93% 29.97 in 10.0 mi SSE 9.2 mph - N/A   Clear
1:14 AM 39.2 °F 33.0 °F 37.4 °F 93% 29.97 in 10.0 mi SSE 9.2 mph - N/A   Clear
1:35 AM 39.2 °F 33.0 °F 37.4 °F 93% 29.97 in 10.0 mi SSE 9.2 mph - N/A   Clear
1:55 AM 39.2 °F 32.5 °F 39.2 °F 100% 29.96 in 10.0 mi SSE 10.4 mph - N/A   Scattered Clouds
1:14 AM 41.0 °F 34.3 °F 39.2 °F 93% 29.96 in 10.0 mi SSE 11.5 mph - N/A   Scattered Clouds
1:35 AM 42.8 °F 35.8 °F 39.2 °F 87% 29.95 in 10.0 mi SSE 13.8 mph - N/A   Scattered Clouds
1:54 AM 42.8 °F 36.2 °F 39.2 °F 87% 29.94 in 10.0 mi SSE 12.7 mph - N/A   Scattered Clouds
2:15 AM 42.8 °F 36.6 °F 39.2 °F 87% 29.93 in 10.0 mi SE 11.5 mph - N/A   Clear
2:35 AM 42.8 °F 37.0 °F 39.2 °F 87% 29.92 in 10.0 mi SE 10.4 mph 16.1 mph N/A   Clear
2:54 AM 42.8 °F 36.6 °F 39.2 °F 87% 29.92 in 10.0 mi SE 11.5 mph - N/A   Clear
3:15 AM 42.8 °F 36.2 °F 39.2 °F 87% 29.91 in 10.0 mi SE 12.7 mph - N/A   Clear
3:35 AM 42.8 °F 36.2 °F 39.2 °F 87% 29.90 in 10.0 mi SE 12.7 mph - N/A   Clear
3:54 AM 42.8 °F 36.2 °F 39.2 °F 87% 29.89 in 10.0 mi SE 12.7 mph 18.4 mph N/A   Clear
4:15 AM 42.8 °F 35.8 °F 37.4 °F 81% 29.89 in 10.0 mi SSE 13.8 mph - N/A   Clear
4:35 AM 42.8 °F 35.8 °F 37.4 °F 81% 29.87 in 10.0 mi SE 13.8 mph - N/A   Clear
4:54 AM 42.8 °F 36.2 °F 37.4 °F 81% 29.87 in 10.0 mi SE 12.7 mph - N/A   Clear
5:15 AM 42.8 °F 35.8 °F 37.4 °F 81% 29.86 in 10.0 mi SE 13.8 mph 19.6 mph N/A   Clear
5:35 AM 42.8 °F 35.8 °F 35.6 °F 76% 29.86 in 10.0 mi SE 13.8 mph 19.6 mph N/A   Clear
5:54 AM 42.8 °F 36.2 °F 35.6 °F 76% 29.85 in 10.0 mi SE 12.7 mph 19.6 mph N/A   Clear
6:15 AM 42.8 °F 35.4 °F 35.6 °F 76% 29.84 in 10.0 mi SE 15.0 mph 19.6 mph N/A   Mostly Cloudy
6:34 AM 44.6 °F 37.4 °F 35.6 °F 71% 29.83 in 10.0 mi SE 16.1 mph 21.9 mph N/A   Overcast
6:55 AM 44.6 °F 36.9 °F 35.6 °F 71% 29.81 in 10.0 mi SE 18.4 mph 24.2 mph N/A   Overcast
7:15 AM 44.6 °F 36.1 °F 35.6 °F 71% 29.80 in 10.0 mi SE 21.9 mph 26.5 mph N/A   Overcast
7:34 AM 44.6 °F 37.2 °F 33.8 °F 66% 29.80 in 10.0 mi SE 17.3 mph 25.3 mph N/A   Mostly Cloudy
7:55 AM 44.6 °F 36.4 °F 33.8 °F 66% 29.80 in 10.0 mi SE 20.7 mph 26.5 mph N/A   Scattered Clouds
8:15 AM 44.6 °F 37.4 °F 33.8 °F 66% 29.79 in 10.0 mi SE 16.1 mph 25.3 mph N/A   Clear
8:34 AM 46.4 °F 39.0 °F 33.8 °F 62% 29.79 in 10.0 mi SSE 19.6 mph 27.6 mph N/A   Clear
8:55 AM 46.4 °F 38.1 °F 33.8 °F 62% 29.78 in 10.0 mi SSE 24.2 mph 33.4 mph N/A   Clear
9:15 AM 46.4 °F 38.1 °F 33.8 °F 62% 29.77 in 10.0 mi SSE 24.2 mph 33.4 mph N/A   Clear
9:34 AM 48.2 °F - 33.8 °F 58% 29.76 in 10.0 mi SSE 21.9 mph 28.8 mph N/A   Clear
9:55 AM 48.2 °F - 32.0 °F 54% 29.75 in 10.0 mi SSE 21.9 mph 34.5 mph N/A   Clear
10:14 AM 50.0 °F - 30.2 °F 47% 29.73 in 10.0 mi SSE 28.8 mph 36.8 mph N/A   Clear
10:35 AM 50.0 °F - 28.4 °F 43% 29.71 in 10.0 mi SSE 31.1 mph 41.4 mph N/A   Clear
10:54 AM 50.0 °F - 28.4 °F 43% 29.71 in 10.0 mi SSE 28.8 mph 38.0 mph N/A   Clear
11:14 AM 51.8 °F - 30.2 °F 44% 29.71 in 10.0 mi SSE 27.6 mph 46.0 mph N/A   Clear
11:35 AM 51.8 °F - 30.2 °F 44% 29.70 in 10.0 mi SSE 32.2 mph 40.3 mph N/A   Clear
11:54 AM 51.8 °F - 28.4 °F 41% 29.69 in 10.0 mi South 29.9 mph 42.6 mph N/A   Clear
12:15 PM 51.8 °F - 26.6 °F 38% 29.68 in 10.0 mi SSE 33.4 mph 41.4 mph N/A   Clear
12:35 PM 53.6 °F - 26.6 °F 35% 29.68 in 10.0 mi SSE 34.5 mph 43.7 mph N/A   Clear
12:54 PM 53.6 °F - 28.4 °F 38% 29.67 in 10.0 mi South 32.2 mph 40.3 mph N/A   Clear
1:15 PM 53.6 °F - 30.2 °F 41% 29.66 in 10.0 mi South 25.3 mph 39.1 mph N/A   Clear
1:35 PM 53.6 °F - 28.4 °F 38% 29.66 in 10.0 mi SSE 34.5 mph 42.6 mph N/A   Clear
1:54 PM 53.6 °F - 28.4 °F 38% 29.65 in 10.0 mi South 31.1 mph 40.3 mph N/A   Clear
2:15 PM 53.6 °F - 30.2 °F 41% 29.65 in 10.0 mi South 27.6 mph 41.4 mph N/A   Clear
2:35 PM 53.6 °F - 30.2 °F 41% 29.66 in 10.0 mi SSE 27.6 mph 40.3 mph N/A   Clear
2:54 PM 53.6 °F - 30.2 °F 41% 29.66 in 10.0 mi SSE 28.8 mph 35.7 mph N/A   Clear
3:15 PM 53.6 °F - 30.2 °F 41% 29.66 in 10.0 mi SSE 24.2 mph 34.5 mph N/A   Clear
3:34 PM 53.6 °F - 30.2 °F 41% 29.66 in 10.0 mi South 21.9 mph 31.1 mph N/A   Clear
3:55 PM 53.6 °F - 30.2 °F 41% 29.66 in 10.0 mi SSE 16.1 mph 27.6 mph N/A   Clear
4:15 PM 53.6 °F - 32.0 °F 44% 29.66 in 10.0 mi SSE 16.1 mph - N/A   Clear
4:34 PM 53.6 °F - 33.8 °F 47% 29.66 in 10.0 mi SSE 17.3 mph 23.0 mph N/A   Clear
4:55 PM 53.6 °F - 30.2 °F 41% 29.66 in 10.0 mi South 18.4 mph 27.6 mph N/A   Clear
5:15 PM 53.6 °F - 30.2 °F 41% 29.66 in 10.0 mi SSE 17.3 mph 23.0 mph N/A   Clear
5:34 PM 51.8 °F - 30.2 °F 44% 29.67 in 10.0 mi SSE 16.1 mph 25.3 mph N/A   Clear
5:55 PM 51.8 °F - 32.0 °F 47% 29.67 in 10.0 mi SSE 19.6 mph 25.3 mph N/A   Clear
6:15 PM 51.8 °F - 32.0 °F 47% 29.66 in 10.0 mi SSE 17.3 mph 24.2 mph N/A   Clear
6:34 PM 51.8 °F - 32.0 °F 47% 29.67 in 10.0 mi SSE 18.4 mph 23.0 mph N/A   Clear
6:55 PM 51.8 °F - 32.0 °F 47% 29.68 in 10.0 mi SSE 19.6 mph - N/A   Clear
7:15 PM 51.8 °F - 32.0 °F 47% 29.67 in 10.0 mi SSE 18.4 mph 23.0 mph N/A   Clear
7:34 PM 50.0 °F - 33.8 °F 54% 29.68 in 10.0 mi SSE 18.4 mph 25.3 mph N/A   Clear
7:55 PM 50.0 °F - 33.8 °F 54% 29.67 in 10.0 mi SSE 18.4 mph 26.5 mph N/A   Clear
8:15 PM 50.0 °F - 33.8 °F 54% 29.66 in 10.0 mi SSE 18.4 mph 28.8 mph N/A   Clear
8:35 PM 50.0 °F - 33.8 °F 54% 29.66 in 10.0 mi SSE 18.4 mph 26.5 mph N/A   Scattered Clouds
8:55 PM 51.8 °F - 33.8 °F 50% 29.66 in 10.0 mi SSE 20.7 mph 27.6 mph N/A   Overcast
9:14 PM 51.8 °F - 33.8 °F 50% 29.66 in 10.0 mi SSE 23.0 mph 27.6 mph N/A   Overcast
9:35 PM 50.0 °F - 33.8 °F 54% 29.66 in 10.0 mi SSE 19.6 mph 31.1 mph N/A   Mostly Cloudy
9:55 PM 50.0 °F - 33.8 °F 54% 29.67 in 10.0 mi SSE 20.7 mph 29.9 mph N/A   Overcast
10:14 PM 50.0 °F - 33.8 °F 54% 29.67 in 10.0 mi SSE 23.0 mph 29.9 mph N/A   Scattered Clouds
10:35 PM 48.2 °F - 33.8 °F 58% 29.66 in 10.0 mi SSE 20.7 mph 27.6 mph N/A   Clear
10:55 PM 48.2 °F - 35.6 °F 62% 29.66 in 10.0 mi South 19.6 mph 25.3 mph N/A   Clear